This is the latest recevied weather packets stored in our database for station/object AC1IX. If no packets are shown the sender has not sent any weather packets the latest 10 day(s).
| Time | Temp. | Humidity | Pressure | Rain* | Wind** | Luminosity | Snow |
|---|---|---|---|---|---|---|---|
| 1777742112 | 8.33° C | 83% | 1012.5 hPa | 0 mm | - | 165 W/m² | - |
| 1777741809 | 7.78° C | 88% | 1012.4 hPa | 0 mm | - | 266 W/m² | - |
| 1777741506 | 7.78° C | 85% | 1012.5 hPa | 0 mm | - | 270 W/m² | - |
| 1777741202 | 7.78° C | 86% | 1012.5 hPa | 0 mm | - | 167 W/m² | - |
| 1777740899 | 7.78° C | 89% | 1012.7 hPa | 0 mm | - | 289 W/m² | - |
| 1777740596 | 6.67° C | 92% | 1012.7 hPa | 0 mm | - | 239 W/m² | - |
| 1777740292 | 7.22° C | 94% | 1012.7 hPa | 0 mm | - | 161 W/m² | - |
| 1777739989 | 6.67° C | 92% | 1012.5 hPa | 0 mm | - | 95 W/m² | - |
| 1777739685 | 6.67° C | 92% | 1012.5 hPa | 0 mm | - | 46 W/m² | - |
| 1777739383 | 6.67° C | 92% | 1012.7 hPa | 0 mm | - | 75 W/m² | - |
| 1777739079 | 7.22° C | 97% | 1012.8 hPa | 0 mm | - | 152 W/m² | - |
| 1777738777 | 6.67° C | 98% | 1012.9 hPa | 0 mm | - | 171 W/m² | - |
| 1777738473 | 6.67° C | 98% | 1012.9 hPa | 0 mm | - | 134 W/m² | - |
| 1777738171 | 6.11° C | 98% | 1012.8 hPa | 0 mm | - | 96 W/m² | - |
| 1777737868 | 6.11° C | 98% | 1012.9 hPa | 0 mm | - | 79 W/m² | - |
| 1777737567 | 6.11° C | 98% | 1012.8 hPa | 0 mm | - | 63 W/m² | - |
| 1777737266 | 6.11° C | 97% | 1012.9 hPa | 0 mm | - | 51 W/m² | - |
| 1777736961 | 6.11° C | 98% | 1012.9 hPa | 0 mm | - | 39 W/m² | - |
| 1777736060 | 5.56° C | 99% | 1013.1 hPa | 0 mm | - | 85 W/m² | - |
| 1777735757 | 5.56° C | 99% | 1012.9 hPa | 0 mm | - | 80 W/m² | - |
| 1777735455 | 5.56° C | 99% | 1012.9 hPa | 0 mm | - | 69 W/m² | - |
| 1777735153 | 5.56° C | 99% | 1012.9 hPa | 0 mm | - | 42 W/m² | - |
| 1777734849 | 5.56° C | 99% | 1013.1 hPa | 0 mm | - | 41 W/m² | - |
| 1777734547 | 5.56° C | 99% | 1013.4 hPa | 0 mm | - | 62 W/m² | - |
| 1777734243 | 5.56° C | 99% | 1013 hPa | 0 mm | - | 58 W/m² | - |
* Rain latest hour (hover to see other rain measurements)
** Current wind speed in m/s (hover to see current wind gust speed)